Regional Weather Roundup
Issued by NWS

Home | Current Version | Previous Version | Graphics & Text | Print | Product List | Glossary On
Versions: 1 2 3 4 5 6 7 8 9 10 11 12 13 14 15 16 17 18 19 20 21 22 23 24 25 26 27 28 29 30 31 32 33 34 35 36 37 38 39 40 41 42 43 44 45 46 47 48 49 50
000
ASUS43 KBIS 291359
RWRND

NORTH DAKOTA REGIONAL WEATHER ROUNDUP
NATIONAL WEATHER SERVICE BISMARCK ND
900 AM CDT FRI AUG 29 2014

NOTE: "FAIR" INDICATES FEW OR NO CLOUDS BELOW 12,000 FEET WITH NO
SIGNIFICANT WEATHER AND/OR OBSTRUCTIONS TO VISIBILITY.


NDZ001>003-009>011-017-291500-
NORTHWEST NORTH DAKOTA

CITY           SKY/WX    TMP DP  RH WIND       PRES   REMARKS
WILLISTON      CLOUDY    60  55  83 NW12      29.95R
MINOT          CLOUDY    63  59  87 NW16G22   29.82S
$$

NDZ018>021-031>035-040>046-291500-
SOUTHWEST NORTH DAKOTA

CITY           SKY/WX    TMP DP  RH WIND       PRES   REMARKS
BISMARCK       SUNNY     65  61  87 NW7       29.82R
GARRISON         N/A     61  58  90 W13G21    29.86R
HETTINGER ARPT CLOUDY    63  56  78 NW17      29.95R
$$

NDZ004>008-012>016-024-026-027-054-291500-
NORTHEAST NORTH DAKOTA

CITY           SKY/WX    TMP DP  RH WIND       PRES   REMARKS
GRAND FORKS    CLOUDY    66  64  93 SW3       29.76F
DEVILS LAKE    CLOUDY    66  61  82 SW10      29.73F
$$

NDZ022-023-025-028>030-036>039-047>053-291500-
SOUTHEAST NORTH DAKOTA

CITY           SKY/WX    TMP DP  RH WIND       PRES   REMARKS
FARGO          CLOUDY    67  65  93 W3        29.76F
$$




USA.gov is the U.S. government's official web portal to all federal, state and local government web resources and services.